Regional Weather Roundup
Issued by NWS

Current Version | Previous Version | Text Only | Print | Product List | Glossary On
Versions: 1 2 3 4 5 6 7 8 9 10 11 12 13 14 15 16 17 18 19 20 21 22 23 24 25 26 27 28 29 30 31 32 33 34 35 36 37 38 39 40 41 42 43 44 45 46 47 48 49 50
723
ASUS45 KABQ 190610
RWRNM
NEW MEXICO REGIONAL WEATHER ROUNDUP
NATIONAL WEATHER SERVICE ALBUQUERQUE NM
1200 AM MDT THU SEP 19 2019

NOTE: "FAIR" MEANS FEW OR NO CLOUDS BELOW 12,000 FEET AGL WITH NO
       SIGNIFICANT WEATHER OR OBSTRUCTIONS TO VISION.

      THIS PRODUCT IS RELEASED AS TWO VERSIONS.  ONE VERSION NEAR
      THE TOP OF THE HOUR CONTAINING PRELIMINARY DATA FROM ALBUQUERQUE
      AND OTHER STATIONS.  A FINAL VERSION WITH ADDITIONAL DATA IS
      ISSUED ABOUT 10 MINUTES AFTER THE HOUR.

NMZ501-503-504-510>518-190700-
NORTHWEST PLATEAU/NORTHCENTRAL MOUNTAINS

CITY           SKY/WX    TMP DP  RH WIND       PRES   REMARKS
FARMINGTON     FAIR      66  38  35 E9        30.08S
6HR MIN TEMP:  65; 6HR MAX TEMP:  81;

LOS ALAMOS     FAIR      65  34  31 W6        30.24F
SANTA FE       FAIR      54  42  64 N5        30.18F
6HR MIN TEMP:  53; 6HR MAX TEMP:  78; 6HR PCP: TRACE;

TAOS           FAIR      49  35  58 E5        30.26F
ANGEL FIRE     FAIR      35  31  85 CALM      30.35S

$$
NMZ402-403-502-505>509-190700-
WESTCENTRAL MOUNTAINS/SOUTHWEST MOUNTAINS

CITY           SKY/WX    TMP DP  RH WIND       PRES   REMARKS
GALLUP         FAIR      54  39  57 E3        30.18S
6HR MIN TEMP:  54; 6HR MAX TEMP:  79;

GRANTS         FAIR      58  47  66 CALM      30.22R
SILVER CITY    FAIR      60  47  60 N8        30.13F

$$
NMZ407-409-411-412-190700-
SOUTHERN DESERTS

CITY           SKY/WX    TMP DP  RH WIND       PRES   REMARKS
DEMING         FAIR      69  55  60 S7        30.05S
6HR MIN TEMP:  68; 6HR MAX TEMP:  88;

LAS CRUCES     FAIR      71  49  46 W10       30.06F
HOLLOMAN AFB   FAIR      74  46  35 SE6       30.04S
ALAMOGORDO     FAIR      72  43  35 CALM      30.04S
T OR C         FAIR      72  46  39 W10       30.06F
6HR MIN TEMP:  72; 6HR MAX TEMP:  88;


$$
NMZ519>523-190700-
CENTRAL VALLEYS/CENTRAL HIGHLANDS

CITY           SKY/WX    TMP DP  RH WIND       PRES   REMARKS
ALBUQUERQUE    FAIR      70  39  32 CALM      30.11S
6HR MIN TEMP:  69; 6HR MAX TEMP:  84;

DOUBLE EAGLE   FAIR      57  47  68 SW5       30.15S
MORIARTY ARPT  FAIR      51  43  75 CALM      30.20S
6HR MIN TEMP:  51; 6HR MAX TEMP:  81;

CLINES CORNERS FAIR      59  32  36 NW7       30.24F
6HR MIN TEMP:  57; 6HR MAX TEMP:  78;

BELEN          FAIR      66  43  42 S5        30.11R
6HR MIN TEMP:  65; 6HR MAX TEMP:  83;

SOCORRO        FAIR      69  43  40 SW6       30.08S
6HR MIN TEMP:  67; 6HR MAX TEMP:  85;


$$
NMZ524>526-539-540-190700-
SOUTHCENTRAL MOUNTAINS

CITY           SKY/WX    TMP DP  RH WIND       PRES   REMARKS
RUIDOSO        FAIR      63  41  45 W3        30.25S

$$
NMZ527>531-190700-
NORTHEAST HIGHLANDS/NORTHEAST PLAINS

CITY           SKY/WX    TMP DP  RH WIND       PRES   REMARKS
LAS VEGAS      FAIR      60  33  36 CALM      30.21S
6HR MIN TEMP:  56; 6HR MAX TEMP:  77;

RATON          FAIR      55  36  48 N7        30.16R
6HR MIN TEMP:  54; 6HR MAX TEMP:  81;

CLAYTON        FAIR      61  51  70 S12       30.09R
6HR MIN TEMP:  59; 6HR MAX TEMP:  86;


$$
NMZ532>537-190700-
EASTCENTRAL PLAINS

CITY           SKY/WX    TMP DP  RH WIND       PRES   REMARKS
TUCUMCARI      FAIR      80  56  43 SW22G31   30.00F
6HR MIN TEMP:  76; 6HR MAX TEMP:  94;

CANNON AFB     FAIR      66  58  73 SE5       30.08R
6HR MIN TEMP:  66; 6HR MAX TEMP:  81;

CLOVIS AIRPORT FAIR      67  57  70 S3        30.08R

$$
NMZ028-029-033-538-190700-
SOUTHEAST PLAINS

CITY           SKY/WX    TMP DP  RH WIND       PRES   REMARKS
ROSWELL        FAIR      79  53  40 S8        29.99S
6HR MIN TEMP:  79; 6HR MAX TEMP:  94; 6HR PCP: TRACE;

ARTESIA        FAIR      79  55  44 S8        30.01S
CARLSBAD       FAIR      78  53  41 SE6       29.97S
6HR MIN TEMP:  76; 6HR MAX TEMP:  93;

HOBBS          FAIR      73  55  53 SE3       30.02F


$$




USA.gov is the U.S. government's official web portal to all federal, state and local government web resources and services.